STARLINK-34378

Last updated on Thu Jul 03 2025 00:02:06 GMT+0000 (Coordinated Universal Time)

1 64299U 25123J 25183.58335648 .00042665 00000+0 97375-3 0 9990 2 64299 69.9996 120.1451 0003706 275.7120 261.7680 15.42664572 5078
UTC large
Height (km)
Speed (km/s)
/
Latitude / Longitude
Inclination (degrees)
Orbital Period (minutes)
Azimuth
Elevation
Range (km)
Doppler Factor

Next 0 passes for location: London (51.5072 / 0.1276)

Sorry there are no passes over London.